Terminal Aerodrome Forecast
Issued by NWS

Home | Current Version | Previous Version | Graphics & Text | Print | Product List | Glossary On
Versions: 1 2 3 4 5 6 7 8 9 10 11 12 13 14 15 16 17 18 19 20 21 22 23 24 25 26 27 28 29 30 31 32 33 34 35 36 37 38 39 40
000
FTUS43 KLOT 031730
TAFDPA
TAF
KDPA 031730Z 0318/0418 21015G22KT P6SM VCSH BKN080
      TEMPO 0318/0320 -SHRA
     FM040000 19010KT P6SM SCT080 BKN250
     FM041000 22010KT 5SM -SHRA VCTS SCT020 OVC035CB
     FM041700 02010KT P6SM VCSH BKN015=

USA.gov is the U.S. government's official web portal to all federal, state and local government web resources and services.